Tracking 17938 objects as of 22-February-2017
HD Live streaming from Space Station
objects crossing your sky now

PSLV DEB

Track PSLV DEB now!
10-day predictions


NORAD ID: 27114
Int'l Code: 2001-049BJ
Perigee: 283.1 km
Apogee: 288.6 km
Inclination: 97.8 °
Period: 90.1 minutes
Semi major axis: 6656 km
RCS: 0.0473 m2 (small)
Launch date: October 22, 2001
Source: India (IND)
Launch site: SIRHARIKOTA (SRI)

Note: This is SATELLITE DEBRIS
Your satellite tracking list
Your tracking list is empty





NASA's NSSDC Master Catalog

Two Line Element Set (TLE):
1 27114U 01049BJ  17053.18316806  .00576735  14621-3  12434-2 0  9994
2 27114  97.8001  93.6059 0004112 200.5970 159.5141 15.98455395827989
Source of the keplerian elements: AFSPC